EW8486 Weather Reports


time (UTC)temp
F
wind
direction
speed
knots
gust
knots
rain 1hr
in
rain 24hr
in
rain mn
in
humidity
%
barometer
mb
20260506143515 58 180 0.9 2.6 0.00 0.00 0.00 63 1013.7
20260506142035 59 203 0.9 1.7 0.00 0.00 0.00 62 1013.9
20260506140515 58 0.0 0.9 0.00 0.00 0.00 58 1013.9
20260506135035 57 0.0 0.0 0.00 0.00 0.00 60 1013.9
20260506133537 56 0.0 1.7 0.00 0.00 0.00 63 1013.6
20260506132017 55 0.0 0.0 0.00 0.00 0.00 63 1013.3
20260506130537 54 0.0 0.9 0.00 0.00 0.00 64 1013.0
20260506125017 53 203 0.9 1.7 0.00 0.00 0.00 63 1013.1
20260506123517 54 0.0 0.0 0.00 0.00 0.00 62 1013.2
20260506122017 54 0.0 0.0 0.00 0.00 0.00 61 1013.1
20260506120517 54 0.0 0.0 0.00 0.00 0.00 61 1013.0
20260506115037 54 0.0 0.0 0.00 0.00 0.00 62 1013.0
20260506113517 54 0.0 0.0 0.00 0.00 0.00 61 1012.9
20260506112017 54 0.0 0.0 0.00 0.00 0.00 61 1012.9
20260506110517 55 0.0 0.0 0.00 0.00 0.00 60 1012.7
20260506105037 56 0.0 0.0 0.00 0.00 0.00 57 1012.4
20260506103537 56 0.0 0.0 0.00 0.00 0.00 58 1012.2
20260506102037 56 0.0 0.0 0.00 0.00 0.00 58 1012.2
20260506100517 56 0.0 0.0 0.00 0.00 0.00 57 1012.2
20260506095037 56 0.0 0.9 0.00 0.00 0.00 57 1012.1
20260506093516 57 0.0 0.9 0.00 0.00 0.00 58 1012.0
20260506092016 58 0.0 0.9 0.00 0.00 0.00 55 1012.0
20260506090557 58 0.0 1.7 0.00 0.00 0.00 53 1012.0
20260506085017 58 0.0 1.7 0.00 0.00 0.00 55 1011.9
20260506083516 59 0.0 0.9 0.00 0.00 0.00 54 1011.9
20260506082017 59 0.0 1.7 0.00 0.00 0.00 50 1011.9
20260506080516 59 0.0 1.7 0.00 0.00 0.00 50 1011.9
20260506073517 60 0.0 0.9 0.00 0.00 0.00 48 1011.8
20260506072017 60 0.0 0.9 0.00 0.00 0.00 47 1011.6
20260506070517 61 0.0 0.0 0.00 0.00 0.00 45 1011.5
20260506062015 62 0.0 0.9 0.00 0.00 0.00 42 1011.1
20260506060515 64 0.0 0.9 0.00 0.00 0.00 42 1011.2
20260506050517 65 0.0 0.9 0.00 0.00 0.00 41 1010.6
20260506045017 65 23 0.9 2.6 0.00 0.00 0.00 40 1010.6
20260506043517 66 0.0 1.7 0.00 0.00 0.00 37 1010.4
20260506042037 66 0.0 0.9 0.00 0.00 0.00 38 1010.3
20260506040517 68 23 0.9 1.7 0.00 0.00 0.00 39 1010.4
20260506033537 70 248 0.9 6.1 0.00 0.00 0.00 33 1009.8
20260506032017 70 0.0 0.9 0.00 0.00 0.00 33 1009.6
20260506030517 70 0.0 0.0 0.00 0.00 0.00 33 1009.6
20260506025017 71 0.0 0.9 0.00 0.00 0.00 32 1009.6
20260506023517 72 0.0 0.9 0.00 0.00 0.00 32 1009.5
20260506022017 75 23 0.9 1.7 0.00 0.00 0.00 29 1009.6
20260506020517 75 23 0.9 2.6 0.00 0.00 0.00 29 1009.7
20260506015017 76 68 0.9 1.7 0.00 0.00 0.00 29 1009.7
20260506013517 77 45 2.6 5.2 0.00 0.00 0.00 27 1009.8
20260506012017 78 23 2.6 4.3 0.00 0.00 0.00 27 1009.7
20260506010536 79 23 1.7 6.1 0.00 0.00 0.00 27 1009.9
20260506005016 80 135 0.9 3.5 0.00 0.00 0.00 27 1010.1
20260506003517 79 23 0.9 4.3 0.00 0.00 0.00 26 1010.1
20260506002017 79 45 1.7 3.5 0.00 0.00 0.00 27 1010.3
20260506000517 79 0 2.6 5.2 0.00 0.00 0.00 26 1010.5
20260505235016 78 90 1.7 3.5 0.00 0.00 0.00 27 1010.5
20260505233517 78 90 1.7 7.8 0.00 0.00 0.00 27 1010.6
20260505232037 79 23 2.6 7.0 0.00 0.00 0.00 26 1010.9
20260505230557 80 90 3.5 7.0 0.00 0.00 0.00 24 1011.2
20260505225016 81 45 1.7 4.3 0.00 0.00 0.00 23 1011.3
20260505223617 81 45 4.3 8.7 0.00 0.00 0.00 23 1011.3
20260505222036 81 90 1.7 6.1 0.00 0.00 0.00 24 1011.7
20260505220516 81 90 2.6 6.1 0.00 0.00 0.00 24 1011.9
20260505215016 81 113 1.7 5.2 0.00 0.00 0.00 24 1012.3
20260505213516 79 45 1.7 6.1 0.00 0.00 0.00 24 1012.4
20260505212016 79 68 2.6 7.0 0.00 0.00 0.00 23 1012.6
20260505210516 79 113 1.7 3.5 0.00 0.00 0.00 24 1012.8
20260505205016 77 45 2.6 8.7 0.00 0.00 0.00 27 1012.8
20260505203516 75 45 4.3 9.6 0.00 0.00 0.00 27 1013.0
20260505202016 76 90 3.5 8.7 0.00 0.00 0.00 26 1013.3
20260505200516 74 45 5.2 11.3 0.00 0.00 0.00 27 1013.5
20260505195036 76 45 3.5 7.8 0.00 0.00 0.00 27 1013.8
20260505193516 76 45 1.7 5.2 0.00 0.00 0.00 28 1014.0
20260505192016 75 68 2.6 8.7 0.00 0.00 0.00 28 1014.1
20260505190516 74 68 3.5 7.8 0.00 0.00 0.00 31 1014.1
20260505185016 72 68 3.5 7.8 0.00 0.00 0.00 32 1014.2
20260505183516 72 45 4.3 7.8 0.00 0.00 0.00 31 1014.5
20260505182016 71 45 3.5 9.6 0.00 0.00 0.00 33 1014.6
20260505180516 71 90 1.7 6.1 0.00 0.00 0.00 36 1014.7
20260505175036 70 68 1.7 6.1 0.00 0.00 0.00 37 1014.9
20260505173516 69 45 2.6 6.1 0.00 0.00 0.00 37 1014.9
20260505172016 68 45 1.7 7.0 0.00 0.00 0.00 39 1015.0
20260505170536 66 68 1.7 5.2 0.00 0.00 0.00 42 1015.1
20260505165036 64 248 2.6 5.2 0.00 0.00 0.00 43 1015.1
20260505163516 65 113 1.7 3.5 0.00 0.00 0.00 46 1015.3
20260505162015 63 23 1.7 4.3 0.00 0.00 0.00 48 1015.3
20260505160515 63 68 2.6 7.8 0.00 0.00 0.00 49 1015.1
20260505152015 61 68 0.9 2.6 0.00 0.00 0.00 51 1015.3
20260505150516 60 45 1.7 2.6 0.00 0.00 0.00 55 1015.2